168  
ASUS45 KGGW 221015  
RWRGGW  
HOURLY REGIONAL WEATHER ROUNDUP FOR NORTHEAST MONTANA  
NATIONAL WEATHER SERVICE GLASGOW MONTANA  
300 AM MST WED NOV 22 2017  
 
NOTE: "FAIR" INDICATES FEW OR NO CLOUDS BELOW 12,000 FEET WITH NO  
SIGNIFICANT WEATHER AND/OR S TO VISISBILITY.  
 
NORTHEAST MONTANA  
 
 
CITY SKY/WX TMP DP RH WIND PRES REMARKS
 
GLASGOW CLOUDY 23 16 74 E10 29.84F  
PLENTYWOOD N/A 20 10 65 SE5 N/A  
WOLF POINT CLOUDY 17 8 67 E3 29.90F  
JORDAN N/A 36 31 82 CALM 29.88F  
WINNETT N/A 38 33 82 SW3 N/A  
SIDNEY CLOUDY 17 11 77 S6 29.94F  
GLENDIVE CLOUDY 27 22 81 S14 29.95F  
MALTA N/A 22 15 75 E3 N/A  
SCOBEY N/A 22 5 48 CALM 29.83F  
 
FORT PECK REPORTS  
 
 
CITY SKY/WX TMP DP RH WIND PRES REMARKS
 
FORT PECK N/A 35 32 88 SE13 N/A  
THE PINES N/A 36 30 80 S9 N/A  
 
SOUTHEAST MONTANA  
 
 
CITY SKY/WX TMP DP RH WIND PRES REMARKS
 
BILLINGS CLOUDY 47 34 60 SW25 30.03S  
MILES CITY CLOUDY 30 28 92 S10 29.97F  
BAKER CLOUDY 27 23 85 E5 29.98F  
LIVINGSTON CLOUDY 53 38 56 W21G35 30.10R  
 
CENTRAL MONTANA  
 
 
CITY SKY/WX TMP DP RH WIND PRES REMARKS
 
HAVRE CLOUDY 50 38 63 SW21 29.83S  
LEWISTOWN CLOUDY 51 38 60 SW26 29.99S  
GREAT FALLS CLOUDY 53 38 56 SW31G43 29.94F  
CUT BANK CLOUDY 50 41 71 W31G40 29.86R  
HELENA CLOUDY 34 32 92 SW5 30.11R  
BUTTE CLOUDY 48 35 60 VRB6 30.19S  
BOZEMAN CLOUDY 37 33 85 NE3 30.15F  
 
WESTERN MONTANA  
 
 
CITY SKY/WX TMP DP RH WIND PRES REMARKS
 
MISSOULA CLOUDY 37 36 96 CALM 30.16S FOG  
KALISPELL NOT AVBL  
 
NORTH DAKOTA  
 
 
CITY SKY/WX TMP DP RH WIND PRES REMARKS
 
WILLISTON CLOUDY 20 9 62 S6 29.95F  
DICKINSON CLOUDY 23 13 65 S17 29.95F  
MINOT CLOUDY 11 6 81 SE7 30.04F  
BISMARCK CLEAR 13 10 88 SE7 30.14F  
 
SOUTHERN SASKATCHEWAN  
 
 
CITY SKY/WX TMP DP RH WIND PRES REMARKS
 
REGINA FLURRIES 10 5 79 SE16 29.88F WCI -7  
MOOSE JAW LGTSLEET 16 10 79 SE12 29.84  
ESTEVAN CLOUDY 12 5 73 SE8 29.95F  
SWIFT CURRENT MOCLDY 28 21 74 S15G21 29.70F  
 
 
 
CLICK HERE TO GO TO PREVIOUS BULLETINS.

The Nexlab MT Page Main Text Page